Time,TemperatureF,DewpointF,PressureIn,WindDirection,WindDirectionDegrees,WindSpeedMPH,WindSpeedGustMPH,Humidity,HourlyPrecipIn,Conditions,Clouds,dailyrainin,SoftwareType,DateUTC
2013-03-03 08:02:00,23.7,13.6,30.04,NW,314,12.0,12.0,65,0.00,,,0.00,Wunderground v.1.15,2013-03-03 13:02:00,
2013-03-03 08:04:00,23.8,13.4,30.04,NW,323,12.0,21.0,64,0.00,,,0.00,Wunderground v.1.15,2013-03-03 13:04:00,
2013-03-03 08:06:00,23.8,13.0,30.04,NNW,328,12.0,21.0,63,0.00,,,0.00,Wunderground v.1.15,2013-03-03 13:06:00,
2013-03-03 08:08:00,23.9,13.5,30.05,NW,321,12.0,21.0,64,0.00,,,0.00,Wunderground v.1.15,2013-03-03 13:08:00,
2013-03-03 08:14:00,24.1,12.9,30.05,WNW,303,12.0,16.0,62,0.00,,,0.00,Wunderground v.1.15,2013-03-03 13:14:00,
2013-03-03 08:20:00,24.3,12.8,30.05,NW,316,10.0,12.0,61,0.00,,,0.00,Wunderground v.1.15,2013-03-03 13:20:00,
2013-03-03 08:26:00,24.4,12.5,30.05,NNW,346,11.0,16.0,60,0.00,,,0.00,Wunderground v.1.15,2013-03-03 13:26:00,
2013-03-03 08:32:00,24.4,12.5,30.05,NNW,330,13.0,18.0,60,0.00,,,0.00,Wunderground v.1.15,2013-03-03 13:32:00,
2013-03-03 08:38:00,24.3,12.0,30.05,NNW,333,15.0,26.0,59,0.00,,,0.00,Wunderground v.1.15,2013-03-03 13:38:00,
2013-03-03 08:44:00,24.7,12.8,30.05,WNW,294,14.0,15.0,60,0.00,,,0.00,Wunderground v.1.15,2013-03-03 13:44:00,
2013-03-03 08:50:00,24.6,12.3,30.05,NW,304,13.0,17.0,59,0.00,,,0.00,Wunderground v.1.15,2013-03-03 13:50:00,
2013-03-03 08:56:00,24.5,12.2,30.05,NW,310,15.0,18.0,59,0.00,,,0.00,Wunderground v.1.15,2013-03-03 13:56:00,
2013-03-03 09:02:00,24.4,12.5,30.05,NW,310,16.0,16.0,60,0.00,,,0.00,Wunderground v.1.15,2013-03-03 14:02:00,
2013-03-03 09:08:00,24.3,12.4,30.06,NW,317,15.0,22.0,60,0.00,,,0.00,Wunderground v.1.15,2013-03-03 14:08:00,
2013-03-03 09:14:00,24.5,12.6,30.06,NW,313,16.0,24.0,60,0.00,,,0.00,Wunderground v.1.15,2013-03-03 14:14:00,
2013-03-03 09:20:00,24.7,12.4,30.06,NNW,328,18.0,18.0,59,0.00,,,0.00,Wunderground v.1.15,2013-03-03 14:20:00,
2013-03-03 09:26:00,25.1,12.8,30.06,NW,315,16.0,18.0,59,0.00,,,0.00,Wunderground v.1.15,2013-03-03 14:26:00,
2013-03-03 09:32:00,25.1,13.2,30.06,NNW,330,14.0,15.0,60,0.00,,,0.00,Wunderground v.1.15,2013-03-03 14:32:00,
2013-03-03 09:38:00,25.3,13.0,30.06,NNW,328,12.0,15.0,59,0.00,,,0.00,Wunderground v.1.15,2013-03-03 14:38:00,
2013-03-03 09:44:00,25.4,13.8,30.06,NW,306,12.0,14.0,61,0.00,,,0.00,Wunderground v.1.15,2013-03-03 14:44:00,
2013-03-03 09:50:00,25.7,14.1,30.07,WNW,296,12.0,14.0,61,0.00,,,0.00,Wunderground v.1.15,2013-03-03 14:50:00,
2013-03-03 09:56:00,25.7,13.3,30.06,NW,312,12.0,19.0,59,0.00,,,0.00,Wunderground v.1.15,2013-03-03 14:56:00,
2013-03-03 10:02:00,25.5,13.1,30.06,NW,307,14.0,16.0,59,0.00,,,0.00,Wunderground v.1.15,2013-03-03 15:02:00,
2013-03-03 10:08:00,25.6,13.2,30.06,NW,306,14.0,23.0,59,0.00,,,0.00,Wunderground v.1.15,2013-03-03 15:08:00,
2013-03-03 10:14:00,25.7,13.3,30.06,NW,304,14.0,15.0,59,0.00,,,0.00,Wunderground v.1.15,2013-03-03 15:14:00,
2013-03-03 10:20:00,26.3,13.9,30.06,WNW,299,13.0,13.0,59,0.00,,,0.00,Wunderground v.1.15,2013-03-03 15:20:00,
2013-03-03 10:26:00,26.4,14.0,30.06,NW,315,11.0,15.0,59,0.00,,,0.00,Wunderground v.1.15,2013-03-03 15:26:00,
2013-03-03 10:32:00,26.0,13.6,30.06,NW,306,13.0,13.0,59,0.00,,,0.00,Wunderground v.1.15,2013-03-03 15:32:00,
2013-03-03 10:38:00,26.0,13.6,30.06,WNW,302,14.0,15.0,59,0.00,,,0.00,Wunderground v.1.15,2013-03-03 15:38:00,
2013-03-03 10:44:00,25.7,13.7,30.07,NW,312,14.0,19.0,60,0.00,,,0.00,Wunderground v.1.15,2013-03-03 15:44:00,
2013-03-03 10:50:00,26.1,13.7,30.06,NW,319,14.0,14.0,59,0.00,,,0.00,Wunderground v.1.15,2013-03-03 15:50:00,
2013-03-03 10:56:00,26.0,13.2,30.06,NW,326,12.0,16.0,58,0.00,,,0.00,Wunderground v.1.15,2013-03-03 15:56:00,
2013-03-03 11:02:00,26.3,13.5,30.06,NNW,331,12.0,20.0,58,0.00,,,0.00,Wunderground v.1.15,2013-03-03 16:02:00,
2013-03-03 11:08:00,26.7,13.9,30.06,NNW,341,12.0,20.0,58,0.00,,,0.00,Wunderground v.1.15,2013-03-03 16:08:00,
2013-03-03 11:14:00,26.8,14.0,30.06,NNW,340,14.0,14.0,58,0.00,,,0.00,Wunderground v.1.15,2013-03-03 16:14:00,
2013-03-03 11:20:00,26.5,14.1,30.06,NW,309,14.0,14.0,59,0.00,,,0.00,Wunderground v.1.15,2013-03-03 16:20:00,
2013-03-03 11:26:00,26.6,13.8,30.06,NW,323,14.0,15.0,58,0.00,,,0.00,Wunderground v.1.15,2013-03-03 16:26:00,
2013-03-03 11:32:00,26.7,13.9,30.07,NW,323,15.0,15.0,58,0.00,,,0.00,Wunderground v.1.15,2013-03-03 16:32:00,
2013-03-03 11:38:00,27.1,13.9,30.06,NW,313,15.0,19.0,57,0.00,,,0.00,Wunderground v.1.15,2013-03-03 16:38:00,
2013-03-03 11:44:00,27.4,13.7,30.06,NNW,336,13.0,16.0,56,0.00,,,0.00,Wunderground v.1.15,2013-03-03 16:44:00,
2013-03-03 11:50:00,27.5,14.2,30.06,NW,315,12.0,26.0,57,0.00,,,0.00,Wunderground v.1.15,2013-03-03 16:50:00,
2013-03-03 11:56:00,27.4,13.7,30.06,NW,322,13.0,26.0,56,0.00,,,0.00,Wunderground v.1.15,2013-03-03 16:56:00,
2013-03-03 12:02:00,27.9,14.2,30.07,North,355,12.0,13.0,56,0.00,,,0.00,Wunderground v.1.15,2013-03-03 17:02:00,
2013-03-03 12:08:00,28.1,14.4,30.06,NW,325,11.0,19.0,56,0.00,,,0.00,Wunderground v.1.15,2013-03-03 17:08:00,
2013-03-03 12:14:00,28.0,14.3,30.06,WNW,298,13.0,18.0,56,0.00,,,0.00,Wunderground v.1.15,2013-03-03 17:14:00,
2013-03-03 12:20:00,28.2,14.9,30.06,NW,324,13.0,13.0,57,0.00,,,0.00,Wunderground v.1.15,2013-03-03 17:20:00,
2013-03-03 12:26:00,28.7,15.0,30.06,North,355,10.0,14.0,56,0.00,,,0.00,Wunderground v.1.15,2013-03-03 17:26:00,
2013-03-03 12:32:00,28.9,15.2,30.06,NW,309,10.0,11.0,56,0.00,,,0.00,Wunderground v.1.15,2013-03-03 17:32:00,
2013-03-03 12:38:00,28.8,15.1,30.05,North,5,11.0,18.0,56,0.00,,,0.00,Wunderground v.1.15,2013-03-03 17:38:00,
2013-03-03 12:44:00,28.7,15.0,30.05,NNW,346,12.0,17.0,56,0.00,,,0.00,Wunderground v.1.15,2013-03-03 17:44:00,
2013-03-03 12:50:00,28.9,14.3,30.05,WNW,291,11.0,11.0,54,0.00,,,0.00,Wunderground v.1.15,2013-03-03 17:50:00,
2013-03-03 12:56:00,29.6,15.0,30.04,NW,322,10.0,12.0,54,0.00,,,0.00,Wunderground v.1.15,2013-03-03 17:56:00,
2013-03-03 13:02:00,29.4,14.8,30.04,NW,309,11.0,16.0,54,0.00,,,0.00,Wunderground v.1.15,2013-03-03 18:02:00,
2013-03-03 13:08:00,29.3,14.7,30.04,West,266,13.0,19.0,54,0.00,,,0.00,Wunderground v.1.15,2013-03-03 18:08:00,
2013-03-03 13:14:00,29.4,14.8,30.04,NW,319,14.0,14.0,54,0.00,,,0.00,Wunderground v.1.15,2013-03-03 18:14:00,
2013-03-03 13:20:00,29.7,15.1,30.04,NW,313,12.0,20.0,54,0.00,,,0.00,Wunderground v.1.15,2013-03-03 18:20:00,
2013-03-03 13:26:00,29.9,15.3,30.04,NW,312,13.0,20.0,54,0.00,,,0.00,Wunderground v.1.15,2013-03-03 18:26:00,
2013-03-03 13:32:00,30.2,15.1,30.05,NW,320,12.0,17.0,53,0.00,,,0.00,Wunderground v.1.15,2013-03-03 18:32:00,
2013-03-03 13:38:00,29.4,14.8,30.04,NW,323,14.0,23.0,54,0.00,,,0.00,Wunderground v.1.15,2013-03-03 18:38:00,
2013-03-03 13:44:00,30.3,15.2,30.05,North,11,13.0,14.0,53,0.00,,,0.00,Wunderground v.1.15,2013-03-03 18:44:00,
2013-03-03 13:50:00,30.1,15.4,30.04,NW,321,12.0,13.0,54,0.00,,,0.00,Wunderground v.1.15,2013-03-03 18:50:00,
2013-03-03 13:56:00,30.0,14.9,30.04,NNW,342,12.0,13.0,53,0.00,,,0.00,Wunderground v.1.15,2013-03-03 18:56:00,
2013-03-03 14:02:00,29.8,15.2,30.04,NNE,19,12.0,17.0,54,0.00,,,0.00,Wunderground v.1.15,2013-03-03 19:02:00,
2013-03-03 14:08:00,29.7,15.1,30.04,North,9,12.0,17.0,54,0.00,,,0.00,Wunderground v.1.15,2013-03-03 19:08:00,
2013-03-03 14:14:00,29.7,15.5,30.03,NNW,332,10.0,12.0,55,0.00,,,0.00,Wunderground v.1.15,2013-03-03 19:14:00,
2013-03-03 14:20:00,29.8,16.0,30.03,NNW,337,10.0,14.0,56,0.00,,,0.00,Wunderground v.1.15,2013-03-03 19:20:00,
2013-03-03 14:26:00,29.7,15.5,30.03,NW,325,11.0,14.0,55,0.00,,,0.00,Wunderground v.1.15,2013-03-03 19:26:00,
2013-03-03 14:32:00,30.1,15.4,30.03,NW,321,10.0,17.0,54,0.00,,,0.00,Wunderground v.1.15,2013-03-03 19:32:00,
2013-03-03 14:38:00,30.6,15.5,30.03,NNW,331,10.0,17.0,53,0.00,,,0.00,Wunderground v.1.15,2013-03-03 19:38:00,
2013-03-03 14:44:00,31.0,16.3,30.03,NW,313,10.0,13.0,54,0.00,,,0.00,Wunderground v.1.15,2013-03-03 19:44:00,
2013-03-03 14:50:00,31.4,15.8,30.03,NW,317,9.0,9.0,52,0.00,,,0.00,Wunderground v.1.15,2013-03-03 19:50:00,
2013-03-03 14:56:00,31.3,15.7,30.03,NW,325,11.0,15.0,52,0.00,,,0.00,Wunderground v.1.15,2013-03-03 19:56:00,
2013-03-03 15:02:00,31.6,16.0,30.03,NNE,24,12.0,13.0,52,0.00,,,0.00,Wunderground v.1.15,2013-03-03 20:02:00,
2013-03-03 15:08:00,32.2,15.6,30.03,NW,325,9.0,13.0,50,0.00,,,0.00,Wunderground v.1.15,2013-03-03 20:08:00,
2013-03-03 15:16:00,31.7,15.2,30.03,WNW,298,12.0,12.0,50,0.00,,,0.00,Wunderground v.1.15,2013-03-03 20:16:00,
2013-03-03 15:22:00,32.0,15.9,30.03,NNW,330,11.0,15.0,51,0.00,,,0.00,Wunderground v.1.15,2013-03-03 20:22:00,
2013-03-03 15:28:00,31.8,15.7,30.03,NW,321,10.0,15.0,51,0.00,,,0.00,Wunderground v.1.15,2013-03-03 20:28:00,
2013-03-03 15:34:00,31.6,15.1,30.04,NNW,341,11.0,14.0,50,0.00,,,0.00,Wunderground v.1.15,2013-03-03 20:34:00,
2013-03-03 15:40:00,31.8,15.3,30.03,NNW,344,11.0,11.0,50,0.00,,,0.00,Wunderground v.1.15,2013-03-03 20:40:00,
2013-03-03 15:46:00,31.2,14.7,30.03,North,351,11.0,18.0,50,0.00,,,0.00,Wunderground v.1.15,2013-03-03 20:46:00,
2013-03-03 15:52:00,31.1,14.6,30.03,North,355,13.0,13.0,50,0.00,,,0.00,Wunderground v.1.15,2013-03-03 20:52:00,
2013-03-03 15:58:00,31.3,14.8,30.04,NW,320,12.0,20.0,50,0.00,,,0.00,Wunderground v.1.15,2013-03-03 20:58:00,
2013-03-03 16:04:00,31.1,14.6,30.04,NNW,336,12.0,14.0,50,0.00,,,0.00,Wunderground v.1.15,2013-03-03 21:04:00,
2013-03-03 16:10:00,30.8,14.3,30.04,NW,322,13.0,16.0,50,0.00,,,0.00,Wunderground v.1.15,2013-03-03 21:10:00,
2013-03-03 16:16:00,31.2,14.7,30.04,North,355,12.0,16.0,50,0.00,,,0.00,Wunderground v.1.15,2013-03-03 21:16:00,
2013-03-03 16:22:00,30.6,14.6,30.04,NW,310,12.0,12.0,51,0.00,,,0.00,Wunderground v.1.15,2013-03-03 21:22:00,
2013-03-03 16:28:00,30.6,14.6,30.04,NW,317,11.0,12.0,51,0.00,,,0.00,Wunderground v.1.15,2013-03-03 21:28:00,
2013-03-03 16:34:00,30.4,14.4,30.04,North,360,12.0,18.0,51,0.00,,,0.00,Wunderground v.1.15,2013-03-03 21:34:00,
2013-03-03 16:40:00,30.5,14.5,30.04,NW,305,13.0,13.0,51,0.00,,,0.00,Wunderground v.1.15,2013-03-03 21:40:00,
2013-03-03 16:46:00,30.1,14.1,30.03,NW,311,15.0,19.0,51,0.00,,,0.00,Wunderground v.1.15,2013-03-03 21:46:00,
2013-03-03 16:52:00,30.2,14.2,30.04,North,355,14.0,15.0,51,0.00,,,0.00,Wunderground v.1.15,2013-03-03 21:52:00,
2013-03-03 16:58:00,30.6,15.0,30.04,North,360,11.0,22.0,52,0.00,,,0.00,Wunderground v.1.15,2013-03-03 21:58:00,
2013-03-03 17:04:00,30.6,14.6,30.04,NW,320,12.0,20.0,51,0.00,,,0.00,Wunderground v.1.15,2013-03-03 22:04:00,
2013-03-03 17:10:00,30.3,14.8,30.04,NW,310,14.0,14.0,52,0.00,,,0.00,Wunderground v.1.15,2013-03-03 22:10:00,
2013-03-03 17:16:00,30.6,15.0,30.04,NW,323,10.0,14.0,52,0.00,,,0.00,Wunderground v.1.15,2013-03-03 22:16:00,
2013-03-03 17:22:00,30.3,15.2,30.05,NNE,12,10.0,13.0,53,0.00,,,0.00,Wunderground v.1.15,2013-03-03 22:22:00,
2013-03-03 17:28:00,29.9,15.3,30.05,NW,316,11.0,13.0,54,0.00,,,0.00,Wunderground v.1.15,2013-03-03 22:28:00,
2013-03-03 17:34:00,29.6,15.4,30.05,NNW,340,10.0,16.0,55,0.00,,,0.00,Wunderground v.1.15,2013-03-03 22:34:00,
2013-03-03 17:40:00,29.4,15.2,30.06,NW,321,11.0,11.0,55,0.00,,,0.00,Wunderground v.1.15,2013-03-03 22:40:00,
2013-03-03 17:46:00,29.1,15.3,30.06,NW,321,12.0,14.0,56,0.00,,,0.00,Wunderground v.1.15,2013-03-03 22:46:00,
2013-03-03 17:52:00,29.1,15.3,30.06,NNW,342,11.0,16.0,56,0.00,,,0.00,Wunderground v.1.15,2013-03-03 22:52:00,
2013-03-03 17:58:00,29.0,15.2,30.06,NNW,347,10.0,16.0,56,0.00,,,0.00,Wunderground v.1.15,2013-03-03 22:58:00,
2013-03-03 18:04:00,28.7,15.0,30.06,North,355,10.0,10.0,56,0.00,,,0.00,Wunderground v.1.15,2013-03-03 23:04:00,
2013-03-03 18:10:00,28.4,14.3,30.07,NW,306,12.0,12.0,55,0.00,,,0.00,Wunderground v.1.15,2013-03-03 23:10:00,
2013-03-03 18:16:00,28.1,14.4,30.07,NNW,344,11.0,12.0,56,0.00,,,0.00,Wunderground v.1.15,2013-03-03 23:16:00,
2013-03-03 18:22:00,27.9,14.6,30.08,NW,313,10.0,17.0,57,0.00,,,0.00,Wunderground v.1.15,2013-03-03 23:22:00,
2013-03-03 18:28:00,27.6,15.1,30.08,NW,306,10.0,17.0,59,0.00,,,0.00,Wunderground v.1.15,2013-03-03 23:28:00,
2013-03-03 18:34:00,27.5,15.0,30.08,North,355,9.0,12.0,59,0.00,,,0.00,Wunderground v.1.15,2013-03-03 23:34:00,
2013-03-03 18:40:00,27.4,15.3,30.08,NNW,346,9.0,9.0,60,0.00,,,0.00,Wunderground v.1.15,2013-03-03 23:40:00,
2013-03-03 18:46:00,27.2,15.1,30.08,North,355,11.0,14.0,60,0.00,,,0.00,Wunderground v.1.15,2013-03-03 23:46:00,
2013-03-03 18:52:00,27.2,15.1,30.08,NW,323,10.0,13.0,60,0.00,,,0.00,Wunderground v.1.15,2013-03-03 23:52:00,
2013-03-03 18:58:00,27.1,15.0,30.08,NW,320,9.0,19.0,60,0.00,,,0.00,Wunderground v.1.15,2013-03-03 23:58:00,
2013-03-03 19:04:00,27.0,14.9,30.09,NNW,331,10.0,16.0,60,0.00,,,0.00,Wunderground v.1.15,2013-03-04 00:04:00,
2013-03-03 19:10:00,27.0,15.3,30.09,NNW,336,8.0,8.0,61,0.00,,,0.00,Wunderground v.1.15,2013-03-04 00:10:00,
2013-03-03 19:16:00,26.9,15.2,30.10,NNW,347,9.0,21.0,61,0.00,,,0.00,Wunderground v.1.15,2013-03-04 00:16:00,
2013-03-03 19:22:00,26.7,15.8,30.10,NNW,329,9.0,9.0,63,0.00,,,0.00,Wunderground v.1.15,2013-03-04 00:22:00,
2013-03-03 19:28:00,26.5,16.3,30.10,NNW,340,7.0,12.0,65,0.00,,,0.00,Wunderground v.1.15,2013-03-04 00:28:00,
2013-03-03 19:34:00,26.4,16.6,30.10,NW,317,6.0,10.0,66,0.00,,,0.00,Wunderground v.1.15,2013-03-04 00:34:00,
2013-03-03 19:40:00,26.3,16.5,30.10,NW,307,7.0,9.0,66,0.00,,,0.00,Wunderground v.1.15,2013-03-04 00:40:00,
2013-03-03 19:46:00,26.3,16.8,30.10,NW,309,7.0,9.0,67,0.00,,,0.00,Wunderground v.1.15,2013-03-04 00:46:00,
2013-03-03 19:52:00,26.2,16.7,30.10,NW,306,7.0,7.0,67,0.00,,,0.00,Wunderground v.1.15,2013-03-04 00:52:00,
2013-03-03 19:58:00,26.1,16.6,30.10,NW,317,6.0,7.0,67,0.00,,,0.00,Wunderground v.1.15,2013-03-04 00:58:00,
2013-03-03 20:04:00,26.1,16.6,30.10,NNW,333,7.0,9.0,67,0.00,,,0.00,Wunderground v.1.15,2013-03-04 01:04:00,
2013-03-03 20:10:00,26.1,16.6,30.10,WNW,284,7.0,7.0,67,0.00,,,0.00,Wunderground v.1.15,2013-03-04 01:10:00,
2013-03-03 20:16:00,26.1,16.6,30.10,WNW,293,6.0,8.0,67,0.00,,,0.00,Wunderground v.1.15,2013-03-04 01:16:00,
2013-03-03 20:22:00,26.1,16.3,30.10,NW,320,7.0,8.0,66,0.00,,,0.00,Wunderground v.1.15,2013-03-04 01:22:00,
2013-03-03 20:28:00,26.0,16.2,30.10,WNW,288,7.0,11.0,66,0.00,,,0.00,Wunderground v.1.15,2013-03-04 01:28:00,
2013-03-03 20:34:00,26.0,16.2,30.10,NW,310,9.0,14.0,66,0.00,,,0.00,Wunderground v.1.15,2013-03-04 01:34:00,
2013-03-03 20:40:00,26.0,16.2,30.10,NNW,336,9.0,9.0,66,0.00,,,0.00,Wunderground v.1.15,2013-03-04 01:40:00,
2013-03-03 20:46:00,26.0,16.2,30.10,NW,308,9.0,12.0,66,0.00,,,0.00,Wunderground v.1.15,2013-03-04 01:46:00,
2013-03-03 20:52:00,26.0,15.8,30.10,North,9,11.0,18.0,65,0.00,,,0.00,Wunderground v.1.15,2013-03-04 01:52:00,
2013-03-03 20:58:00,26.0,15.8,30.10,NW,324,11.0,18.0,65,0.00,,,0.00,Wunderground v.1.15,2013-03-04 01:58:00,
2013-03-03 21:04:00,25.9,15.4,30.10,WNW,300,10.0,16.0,64,0.00,,,0.00,Wunderground v.1.15,2013-03-04 02:04:00,
2013-03-03 21:10:00,25.9,15.4,30.10,NNW,343,10.0,10.0,64,0.00,,,0.00,Wunderground v.1.15,2013-03-04 02:10:00,
2013-03-03 21:16:00,25.8,15.3,30.10,NW,323,9.0,11.0,64,0.00,,,0.00,Wunderground v.1.15,2013-03-04 02:16:00,
2013-03-03 21:22:00,25.8,15.3,30.10,NW,311,11.0,14.0,64,0.00,,,0.00,Wunderground v.1.15,2013-03-04 02:22:00,
2013-03-03 21:28:00,25.8,15.3,30.10,NNW,331,12.0,15.0,64,0.00,,,0.00,Wunderground v.1.15,2013-03-04 02:28:00,
2013-03-03 21:34:00,25.8,15.3,30.10,NW,311,10.0,18.0,64,0.00,,,0.00,Wunderground v.1.15,2013-03-04 02:34:00,
2013-03-03 21:40:00,25.7,15.2,30.09,WNW,296,12.0,19.0,64,0.00,,,0.00,Wunderground v.1.15,2013-03-04 02:40:00,
2013-03-03 21:46:00,25.7,15.2,30.10,NW,309,14.0,19.0,64,0.00,,,0.00,Wunderground v.1.15,2013-03-04 02:46:00,
2013-03-03 21:52:00,25.6,15.1,30.10,NW,317,14.0,16.0,64,0.00,,,0.00,Wunderground v.1.15,2013-03-04 02:52:00,
2013-03-03 21:58:00,25.6,15.1,30.09,WNW,292,14.0,18.0,64,0.00,,,0.00,Wunderground v.1.15,2013-03-04 02:58:00,
2013-03-03 22:04:00,25.6,15.1,30.09,WNW,293,16.0,19.0,64,0.00,,,0.00,Wunderground v.1.15,2013-03-04 03:04:00,
2013-03-03 22:10:00,25.5,15.0,30.09,NW,321,16.0,16.0,64,0.00,,,0.00,Wunderground v.1.15,2013-03-04 03:10:00,
2013-03-03 22:16:00,25.5,15.0,30.10,NW,311,14.0,16.0,64,0.00,,,0.00,Wunderground v.1.15,2013-03-04 03:16:00,
2013-03-03 22:22:00,25.4,14.9,30.10,WNW,291,14.0,14.0,64,0.00,,,0.00,Wunderground v.1.15,2013-03-04 03:22:00,
2013-03-03 22:28:00,25.4,14.5,30.10,NW,320,13.0,15.0,63,0.00,,,0.00,Wunderground v.1.15,2013-03-04 03:28:00,
2013-03-03 22:34:00,25.4,14.5,30.11,NW,325,14.0,16.0,63,0.00,,,0.00,Wunderground v.1.15,2013-03-04 03:34:00,
2013-03-03 22:40:00,25.3,14.5,30.10,WNW,300,12.0,14.0,63,0.00,,,0.00,Wunderground v.1.15,2013-03-04 03:40:00,
2013-03-03 22:46:00,25.2,14.4,30.11,NW,315,11.0,14.0,63,0.00,,,0.00,Wunderground v.1.15,2013-03-04 03:46:00,
2013-03-03 22:52:00,25.2,14.4,30.11,NW,319,10.0,11.0,63,0.00,,,0.00,Wunderground v.1.15,2013-03-04 03:52:00,
2013-03-03 22:58:00,25.1,14.3,30.11,NW,321,9.0,17.0,63,0.00,,,0.00,Wunderground v.1.15,2013-03-04 03:58:00,
2013-03-03 23:04:00,25.1,14.3,30.10,NW,323,10.0,15.0,63,0.00,,,0.00,Wunderground v.1.15,2013-03-04 04:04:00,
2013-03-03 23:10:00,25.1,14.3,30.11,NNW,342,10.0,13.0,63,0.00,,,0.00,Wunderground v.1.15,2013-03-04 04:10:00,
2013-03-03 23:16:00,25.1,14.3,30.11,North,351,12.0,14.0,63,0.00,,,0.00,Wunderground v.1.15,2013-03-04 04:16:00,
2013-03-03 23:22:00,25.1,14.3,30.11,NNW,342,12.0,13.0,63,0.00,,,0.00,Wunderground v.1.15,2013-03-04 04:22:00,
2013-03-03 23:28:00,25.0,14.2,30.11,NW,315,11.0,13.0,63,0.00,,,0.00,Wunderground v.1.15,2013-03-04 04:28:00,
2013-03-03 23:34:00,25.0,14.2,30.11,NW,323,12.0,12.0,63,0.00,,,0.00,Wunderground v.1.15,2013-03-04 04:34:00,
2013-03-03 23:40:00,24.9,14.1,30.11,WNW,302,12.0,12.0,63,0.00,,,0.00,Wunderground v.1.15,2013-03-04 04:40:00,
2013-03-03 23:46:00,24.9,14.1,30.10,NW,319,11.0,16.0,63,0.00,,,0.00,Wunderground v.1.15,2013-03-04 04:46:00,
2013-03-03 23:52:00,24.8,14.0,30.10,NW,307,11.0,14.0,63,0.00,,,0.00,Wunderground v.1.15,2013-03-04 04:52:00,
2013-03-03 23:58:00,24.8,14.0,30.10,NW,321,12.0,16.0,63,0.00,,,0.00,Wunderground v.1.15,2013-03-04 04:58:00,